Probability
0 0 0 0 0 0 0 0 0 0 0 0 0 0 0 0 0 0 0 0 0 0 0 0 0 0 0 0 0 0 0 0 0 0 0 0 0 0 0 0 0 0 0 0
0 0 0 0 0 0 0 0 0 0 0 0 0 0 0 0 0 0 0 0 0 0 0 0 0 0 0 0 0 0 0 0 0 0 0 0 0 0 0 0 0 0 0 0
0 0 0 0 0 0 0 0 0 0 0 0 0 0 0 0 0 0 0 0 0 0 0 0 0 0 0 0 0 0 0 0 0 0 0 1 1 0 0 0 0 0 0 0
0 0 0 0 0 0 0 0 0 0 0 0 0 0 0 0 0 0 0 0 0 0 0 0 0 0 0 0 0 0 0 0 0 0 1 2 2 1 0 0 0 0 0 0
0 0 0 0 0 0 0 0 0 0 0 0 0 0 0 0 0 0 0 0 0 0 0 0 0 0 0 0 0 0 0 0 1 1 2 3 2 1 0 0 0 0 0 0
0 0 0 0 0 0 0 0 0 0 0 0 0 0 0 0 0 0 0 0 0 0 0 0 0 0 0 0 0 0 0 1 2 3 3 2 1 0 0 0 0 0 0 0
0 0 0 0 0 0 0 0 0 0 0 0 0 0 0 0 0 0 0 0 0 0 0 0 0 0 0 0 0 0 1 2 3 3 2 1 0 0 0 0 0 0 0 0
0 0 0 0 0 0 0 0 0 0 0 0 0 0 0 0 0 0 0 0 0 0 0 0 0 0 0 0 0 1 2 3 3 2 1 0 0 0 0 0 0 0 0 0
0 0 0 0 0 0 0 0 0 0 0 0 0 0 0 0 0 0 0 0 0 0 0 0 0 0 0 0 0 1 2 2 1 1 0 0 0 0 0 0 0 0 0 0
0 0 0 0 0 0 0 0 0 0 0 0 0 0 0 0 0 0 0 0 0 0 0 0 0 0 0 0 0 1 1 1 0 0 0 0 0 0 0 0 0 0 0 0
0 0 0 0 0 0 0 0 0 0 0 0 0 0 0 0 0 0 0 0 0 0 0 0 0 0 0 0 0 0 0 0 0 0 0 0 0 0 0 0 0 0 0 0
0 0 0 0 0 0 0 0 0 0 0 0 0 0 0 0 0 0 0 0 0 0 0 0 0 0 0 0 0 0 0 0 0 0 0 0 0 0 0 0 0 0 0 0
0 0 0 0 0 0 0 0 0 0 0 0 0 0 0 0 0 0 0 0 0 0 0 0 0 0 0 0 0 0 0 0 0 0 0 0 0 0 0 0 0 0 0 0
0 0 0 0 0 0 0 0 0 0 0 0 0 0 0 0 0 0 0 0 0 0 0 0 0 0 0 0 0 0 0 0 0 0 0 0 0 0 0 0 0 0 0 0
0 0 0 0 0 0 0 0 0 0 0 0 0 0 0 0 0 0 0 0 0 0 0 0 0 0 0 0 0 0 0 0 0 0 0 0 0 0 0 0 0 0 0 0
0 0 0 0 0 0 0 0 0 0 0 0 0 0 0 0 0 0 0 0 0 0 0 0 0 0 0 0 0 0 0 0 0 0 0 0 0 0 0 0 0 0 0 0
0 0 0 0 0 0 0 0 0 0 0 0 0 0 0 0 0 0 0 0 0 0 0 0 0 0 0 0 0 0 0 0 0 0 0 0 0 0 0 0 0 0 0 0
0 0 0 0 0 0 0 0 0 0 0 0 0 0 0 0 0 0 0 0 0 0 0 0 0 0 0 0 0 0 0 0 0 0 0 0 0 0 0 0 0 0 0 0
0 0 0 0 0 0 0 0 0 0 0 0 0 0 0 0 0 0 0 0 0 0 0 0 0 0 0 0 0 0 0 0 0 0 0 0 0 0 0 0 0 0 0 0
0 0 0 0 0 0 0 0 0 0 0 0 0 0 0 0 0 0 0 0 0 0 0 0 0 0 0 0 0 0 0 0 0 0 0 0 0 0 0 0 0 0 0 0
0 0 0 0 0 0 0 0 0 0 0 0 0 0 0 0 0 0 0 0 0 0 0 0 0 0 0 0 0 0 0 0 0 0 0 0 0 0 0 0 0 0 0 0
0 0 0 0 0 0 0 0 0 0 0 0 0 0 0 0 0 0 0 0 0 0 0 0 0 0 0 0 0 0 0 0 0 0 0 0 0 0 0 0 0 0 0 0
0 0 0 0 0 0 0 0 0 0 0 0 0 0 0 0 0 0 0 0 0 0 0 0 0 0 0 0 0 0 0 0 0 0 0 0 0 0 0 0 0 0 0 0
0 0 0 0 0 0 0 0 0 0 0 0 0 0 0 0 0 0 0 0 0 0 0 0 0 0 0 0 0 0 0 0 0 0 0 0 0 0 0 0 0 0 0 0
0 0 0 0 0 0 0 0 0 0 0 0 0 0 0 0 0 0 0 0 0 0 0 0 0 0 0 0 0 0 0 0 0 0 0 0 0 0 0 0 0 0 0 0
0 0 0 0 0 0 0 0 0 0 0 0 0 0 0 0 0 0 0 0 0 0 0 0 0 0 0 0 0 0 0 0 0 0 0 0 0 0 0 0 0 0 0 0
0 0 0 0 0 0 0 0 0 0 0 0 0 0 0 0 0 0 0 0 0 0 0 0 0 0 0 0 0 0 0 0 0 0 0 0 0 0 0 0 0 0 0 0
Wind_Speed
4 3 3 4 6 7 9 9 9 9 10 12 8 5 4 3 3 3 3 3 3 3 4 5 4 4 4 4 4 3 2 3 4 3 3 3 3 3 3 3 4 4 4 4
3 3 4 5 7 10 10 9 10 10 13 10 5 3 3 3 3 3 4 3 3 4 5 5 5 5 4 5 4 3 3 4 3 2 2 2 3 2 2 3 3 3 4 4
3 2 1 8 9 10 7 7 8 12 12 4 3 4 5 4 4 4 4 4 4 5 5 5 5 4 5 5 4 3 3 3 3 2 2 3 3 2 3 3 3 3 4 4
1 1 7 8 3 6 7 7 8 7 5 4 5 5 4 4 4 4 4 4 5 5 5 5 4 4 4 4 3 3 3 3 3 2 3 3 2 3 3 3 3 3 4 4
3 3 8 7 3 5 6 7 6 8 7 4 1 3 3 3 2 4 4 4 5 5 5 5 5 4 3 3 3 3 3 3 3 2 3 3 3 3 3 2 3 3 3 3
3 3 7 6 2 2 3 6 4 6 6 4 1 2 5 2 2 3 3 3 4 4 4 4 4 3 2 3 3 4 4 4 3 3 3 3 3 3 3 2 3 3 3 3
4 5 9 5 1 3 4 7 3 3 5 4 5 6 4 3 3 3 3 4 3 3 3 3 3 2 2 3 4 4 4 3 3 3 3 3 3 2 2 2 2 2 3 3
4 5 9 2 4 6 6 2 2 3 3 4 4 4 3 3 3 3 4 4 3 2 3 3 2 2 3 4 4 3 3 3 3 3 3 2 2 2 2 2 2 2 2 2
8 8 3 4 5 3 2 3 3 3 3 2 3 3 3 4 3 3 3 4 3 2 3 3 2 2 3 4 3 3 3 3 3 3 3 2 2 2 2 1 1 2 2 2
4 6 4 4 3 3 3 3 3 3 2 2 3 4 4 4 3 4 3 3 3 2 3 4 3 2 3 3 3 2 3 3 3 2 3 2 2 2 1 1 2 2 2 2
5 6 4 4 4 4 3 2 2 2 2 2 2 3 4 3 4 3 3 3 2 2 3 5 4 3 3 3 2 2 3 3 3 2 2 2 2 2 2 2 2 2 2 2
7 6 5 5 3 3 2 3 3 2 3 3 2 3 3 3 3 3 3 2 2 3 3 4 4 4 4 3 2 2 3 3 2 2 2 2 2 3 3 3 4 4 4 3
6 4 4 4 3 2 2 3 3 2 3 3 3 2 3 3 3 2 2 2 3 3 3 3 3 4 4 3 2 2 3 3 2 2 2 2 2 2 3 4 4 4 4 4
3 1 2 3 3 2 2 2 1 1 2 2 2 2 2 2 3 3 3 3 3 3 3 3 3 4 4 3 2 2 3 3 2 2 2 2 2 2 2 2 3 3 4 4
3 3 4 2 1 1 1 0 1 2 2 3 2 2 2 2 3 4 3 3 3 3 3 3 3 4 4 3 2 3 2 2 2 1 1 1 2 2 2 2 2 2 3 3
2 1 1 1 2 2 1 1 1 2 2 2 3 3 3 3 3 3 3 2 2 3 3 3 4 4 3 3 3 2 2 3 2 1 1 1 1 2 2 2 2 2 2 2
2 2 2 2 3 2 2 2 3 3 3 3 4 3 3 2 3 3 4 3 3 3 3 3 4 4 3 3 2 2 2 2 3 2 1 1 1 2 2 2 2 2 2 3
4 4 4 4 4 3 3 2 2 2 3 3 3 2 2 2 3 4 4 3 3 3 3 4 4 3 3 3 2 2 1 2 1 1 1 1 1 1 2 2 2 2 2 3
2 2 2 2 3 3 3 3 3 3 3 2 2 2 3 3 3 3 3 2 3 4 5 4 6 3 3 4 3 1 1 2 2 1 1 2 2 1 2 2 2 2 2 2
1 0 1 1 1 1 2 2 2 2 2 2 2 2 3 3 3 3 2 3 3 4 4 5 4 3 3 3 3 1 1 1 1 2 1 1 2 2 2 2 2 2 2 2
1 1 1 1 2 2 2 2 2 2 2 2 2 3 3 3 3 2 2 3 4 4 4 5 3 3 3 3 3 1 1 1 2 2 2 2 2 2 2 2 2 2 2 2
1 1 1 1 1 2 2 2 2 2 2 2 2 2 2 3 3 3 3 4 4 6 4 3 3 5 5 4 1 1 2 2 2 2 2 2 2 2 2 2 2 2 2 2
1 1 2 2 2 2 2 2 2 2 2 2 3 3 3 3 2 2 4 3 3 6 4 3 5 7 6 2 1 2 2 2 2 2 2 2 2 2 2 2 2 2 2 2
1 1 1 1 0 1 2 2 2 2 2 3 3 3 3 2 3 3 3 5 6 6 3 5 7 6 4 1 1 2 2 2 2 2 2 2 2 2 2 2 2 2 2 3
1 1 1 1 1 2 2 2 2 1 1 2 3 3 2 2 3 3 3 3 6 5 3 4 6 5 2 2 2 2 2 2 2 2 2 2 2 2 2 2 2 2 2 2
1 1 1 2 2 2 1 1 1 1 1 2 2 2 2 2 2 2 2 3 3 4 3 3 3 3 2 2 2 2 2 2 3 2 2 2 2 2 2 2 2 2 2 2
0 0 1 1 1 1 1 1 1 2 2 2 2 2 2 2 1 2 2 2 2 2 2 2 2 2 2 2 2 2 2 2 2 2 2 2 2 2 2 2 2 2 2 2
Wind_Direction
247 250 205 222 220 198 203 209 215 244 248 264 269 263 265 268 278 295 309 318 315 313 314 318 320 318 311 303 300 294 279 261 255 254 248 245 242 241 244 245 245 241 241 245
274 252 234 258 247 221 224 227 237 256 265 266 266 266 270 262 258 275 288 293 299 305 309 310 309 307 306 302 299 296 282 276 271 260 255 250 244 244 246 253 257 256 251 245
254 289 354 264 232 209 213 215 207 233 248 261 270 262 251 252 252 256 262 279 289 292 292 293 295 296 295 294 297 291 283 286 280 260 258 258 254 248 248 251 250 253 254 247
189 94 237 246 203 193 211 235 221 237 258 248 243 260 260 244 235 254 266 277 284 287 289 289 289 294 295 301 297 287 288 286 283 272 267 269 260 252 254 258 251 250 252 248
166 218 268 284 234 179 193 255 225 229 255 266 306 338 301 252 228 252 265 271 274 277 280 286 288 291 299 308 302 293 288 286 283 273 269 269 266 264 264 265 269 261 255 251
171 201 240 254 232 188 135 272 245 218 239 246 171 272 269 275 303 301 296 287 287 292 292 292 292 296 297 300 297 288 286 284 285 278 269 268 266 268 272 266 267 268 264 253
200 229 258 255 198 132 173 251 272 224 228 209 211 233 263 300 305 302 302 301 299 296 296 289 291 299 293 298 288 288 292 292 293 288 281 276 276 270 270 277 279 270 266 264
175 213 252 203 142 185 226 265 254 239 230 223 246 267 280 289 294 305 313 314 313 315 313 309 303 299 297 294 298 305 306 305 300 296 290 291 285 283 276 263 266 263 266 275
195 216 249 182 204 235 243 251 258 248 251 236 259 269 280 288 290 298 304 311 317 314 314 315 312 301 293 299 310 316 315 309 305 303 299 295 285 281 283 270 259 262 256 263
244 261 261 257 263 279 259 246 262 263 262 251 261 268 277 284 294 301 305 309 316 320 314 313 316 311 292 300 312 311 304 303 304 301 303 308 301 285 273 266 260 261 262 265
249 270 294 277 256 259 270 271 280 291 272 251 243 269 273 280 287 289 297 306 308 301 299 304 316 319 311 311 318 309 303 301 307 302 298 302 304 291 279 263 254 254 257 257
231 232 217 252 262 255 257 268 266 277 298 292 258 260 277 280 280 279 286 299 306 304 302 306 314 314 315 315 310 305 302 302 300 301 300 302 306 316 311 295 301 295 288 285
235 248 237 259 281 274 259 273 279 273 266 284 292 276 277 285 290 289 291 293 290 292 295 302 306 307 311 314 315 297 288 292 292 290 289 297 303 304 315 325 325 321 315 306
241 231 255 256 262 273 268 283 313 326 307 295 295 305 300 296 301 302 297 293 294 298 301 304 307 306 311 316 312 299 292 286 290 286 286 291 289 288 291 300 313 318 322 319
253 225 225 250 287 300 298 7 13 327 323 326 323 320 315 305 300 300 304 312 316 311 309 313 311 310 320 321 312 298 292 297 297 295 293 292 296 292 289 291 293 304 319 324
263 273 224 222 248 266 277 253 258 285 296 300 305 303 299 292 294 302 308 313 310 304 303 305 304 307 317 320 316 307 296 298 313 306 305 304 305 301 292 286 288 296 302 308
189 234 242 259 261 263 253 243 244 262 276 279 284 294 301 309 310 309 309 305 293 288 292 296 298 309 317 316 313 308 310 308 314 321 312 304 300 300 300 293 288 288 292 298
231 237 232 229 236 253 271 271 264 269 268 271 284 286 285 282 283 292 303 313 316 308 296 295 297 309 312 312 312 306 301 303 307 303 305 303 310 307 304 301 291 286 295 301
248 241 247 247 241 235 247 260 269 273 278 277 277 279 279 279 281 290 301 306 304 303 305 307 311 317 310 306 315 301 302 306 310 310 307 306 314 312 307 302 301 294 293 299
305 282 268 284 284 248 248 259 265 274 274 265 276 289 295 293 290 293 294 281 271 274 290 301 309 304 302 299 307 302 293 291 294 300 300 300 298 300 302 304 303 304 304 297
279 280 284 288 294 286 262 250 249 265 276 263 257 269 281 292 294 289 286 289 293 295 296 303 307 299 297 300 299 298 288 286 283 279 282 286 288 290 293 298 302 304 305 306
250 239 257 265 268 284 287 269 254 263 274 276 278 279 283 291 296 289 266 261 286 302 308 296 295 295 301 305 291 284 286 288 283 277 276 278 280 285 290 295 294 298 302 304
255 243 248 252 251 269 290 277 258 254 258 261 262 264 268 274 275 275 287 287 288 298 304 289 296 301 309 314 291 279 276 275 274 272 273 273 273 273 278 282 285 290 293 297
254 257 260 261 231 253 279 285 282 270 265 270 266 263 262 277 283 267 269 293 303 304 300 297 306 310 320 314 285 277 274 275 276 275 275 273 271 272 272 275 280 285 287 294
242 242 235 215 235 251 260 282 300 292 290 288 286 281 267 253 260 279 286 290 301 310 310 309 314 317 322 298 284 279 278 278 282 282 278 283 282 281 279 280 283 287 291 294
241 241 244 243 245 249 250 252 267 277 284 294 299 296 295 288 278 282 291 298 304 318 322 317 315 315 308 295 288 284 283 292 296 291 286 287 289 289 290 292 292 291 293 295
290 279 273 284 272 248 244 246 251 263 263 267 285 295 300 305 310 317 320 321 324 326 323 322 322 317 311 305 298 294 294 296 296 298 300 297 293 290 291 292 292 293 293 294